Location: Seattle
(47.6064°N, 122.3308°W)
Time: 23:54:29
(UTC-07:00)

S-56A Canister/Altair - Pass Details

Date: 01 August 2021
Orbit: 632 x 2500 km, 38.9° (Epoch: 23 September)

Event Time Altitude Azimuth Distance (km) Brightness Sun altitude
Rises 22:07:36 0° 282° (WNW) 6,183 13.2 -12.3°
Reaches altitude 10° 22:12:41 10° 272° (W) 5,116 12.4 -12.9°
Maximum altitude 22:23:24 26° 224° (SW) 3,614 10.9 -14.2°
Drops below altitude 10° 22:32:23 10° 175° (S) 4,205 10.8 -15.2°
Enters shadow 22:32:31 10° 174° (S) 4,228 10.8 -15.2°
